Time,TemperatureF,DewpointF,PressureIn,WindDirection,WindDirectionDegrees,WindSpeedMPH,WindSpeedGustMPH,Humidity,HourlyPrecipIn,Conditions,Clouds,dailyrainin,SoftwareType,DateUTC
2013-07-29 00:07:00,58.0,55.0,29.91,West,271,0.0,0.0,88,0.00,,,0.00,weatherlink.com 1.10,2013-07-29 04:07:00,
2013-07-29 00:22:00,57.9,54.0,29.91,SSE,161,0.0,0.0,88,0.00,,,0.00,weatherlink.com 1.10,2013-07-29 04:22:00,
2013-07-29 00:37:00,58.1,55.0,29.91,SSE,156,0.0,0.0,89,0.00,,,0.00,weatherlink.com 1.10,2013-07-29 04:37:00,
2013-07-29 00:52:00,58.5,56.0,29.92,WNW,300,0.0,0.0,90,0.01,,,0.01,weatherlink.com 1.10,2013-07-29 04:52:00,
2013-07-29 01:07:00,57.9,56.0,29.93,WNW,297,0.0,0.0,93,0.02,,,0.02,weatherlink.com 1.10,2013-07-29 05:07:00,
2013-07-29 01:23:00,57.7,56.0,29.93,NW,304,0.0,2.0,94,0.02,,,0.02,weatherlink.com 1.10,2013-07-29 05:23:00,
2013-07-29 01:38:00,57.4,56.0,29.93,WNW,287,1.0,2.0,95,0.03,,,0.03,weatherlink.com 1.10,2013-07-29 05:38:00,
2013-07-29 01:53:00,57.1,56.0,29.92,NW,304,0.0,0.0,95,0.02,,,0.03,weatherlink.com 1.10,2013-07-29 05:53:00,
2013-07-29 02:08:00,57.0,56.0,29.93,WNW,288,0.0,0.0,96,0.01,,,0.03,weatherlink.com 1.10,2013-07-29 06:08:00,
2013-07-29 02:23:00,57.0,56.0,29.93,WNW,287,0.0,0.0,96,0.00,,,0.03,weatherlink.com 1.10,2013-07-29 06:23:00,
2013-07-29 02:38:00,56.9,56.0,29.93,WNW,287,0.0,0.0,96,0.00,,,0.03,weatherlink.com 1.10,2013-07-29 06:38:00,
2013-07-29 02:53:00,56.8,56.0,29.93,WNW,287,0.0,0.0,96,0.00,,,0.03,weatherlink.com 1.10,2013-07-29 06:53:00,
2013-07-29 03:08:00,56.8,56.0,29.93,WNW,287,0.0,0.0,96,0.00,,,0.03,weatherlink.com 1.10,2013-07-29 07:08:00,
2013-07-29 03:23:00,56.7,56.0,29.94,WNW,287,0.0,0.0,96,0.00,,,0.03,weatherlink.com 1.10,2013-07-29 07:23:00,
2013-07-29 03:38:00,56.7,56.0,29.94,WNW,287,0.0,0.0,96,0.00,,,0.03,weatherlink.com 1.10,2013-07-29 07:38:00,
2013-07-29 03:53:00,56.6,56.0,29.95,WNW,287,0.0,0.0,97,0.00,,,0.03,weatherlink.com 1.10,2013-07-29 07:53:00,
2013-07-29 04:08:00,56.6,56.0,29.94,WNW,287,0.0,0.0,97,0.00,,,0.03,weatherlink.com 1.10,2013-07-29 08:08:00,
2013-07-29 04:23:00,56.6,56.0,29.95,WNW,287,0.0,0.0,97,0.00,,,0.03,weatherlink.com 1.10,2013-07-29 08:23:00,
2013-07-29 04:38:00,56.7,56.0,29.95,WNW,286,0.0,0.0,97,0.00,,,0.03,weatherlink.com 1.10,2013-07-29 08:38:00,
2013-07-29 04:53:00,56.6,56.0,29.95,WNW,287,0.0,0.0,97,0.00,,,0.03,weatherlink.com 1.10,2013-07-29 08:53:00,
2013-07-29 05:08:00,56.6,56.0,29.95,WNW,287,0.0,0.0,97,0.00,,,0.03,weatherlink.com 1.10,2013-07-29 09:08:00,
2013-07-29 05:23:00,56.7,56.0,29.96,WNW,287,0.0,0.0,97,0.00,,,0.03,weatherlink.com 1.10,2013-07-29 09:23:00,
2013-07-29 05:38:00,56.6,56.0,29.96,WNW,287,0.0,0.0,97,0.00,,,0.03,weatherlink.com 1.10,2013-07-29 09:38:00,
2013-07-29 05:53:00,56.5,56.0,29.96,WNW,287,0.0,0.0,97,0.00,,,0.03,weatherlink.com 1.10,2013-07-29 09:53:00,
2013-07-29 06:08:00,56.4,56.0,29.97,WNW,287,0.0,0.0,97,0.00,,,0.03,weatherlink.com 1.10,2013-07-29 10:08:00,
2013-07-29 06:23:00,56.3,56.0,29.97,WNW,286,0.0,0.0,97,0.00,,,0.03,weatherlink.com 1.10,2013-07-29 10:23:00,
2013-07-29 06:38:00,56.5,56.0,29.98,WNW,286,0.0,0.0,97,0.00,,,0.03,weatherlink.com 1.10,2013-07-29 10:38:00,
2013-07-29 07:08:00,56.6,56.0,29.99,WNW,287,0.0,0.0,97,0.00,,,0.03,weatherlink.com 1.10,2013-07-29 11:08:00,
2013-07-29 07:23:00,56.7,56.0,30.00,WNW,287,0.0,0.0,97,0.00,,,0.03,weatherlink.com 1.10,2013-07-29 11:23:00,
2013-07-29 07:53:00,57.0,56.0,30.00,NW,304,0.0,0.0,97,0.00,,,0.03,weatherlink.com 1.10,2013-07-29 11:53:00,
2013-07-29 08:08:00,57.1,56.0,30.01,NW,304,0.0,0.0,97,0.00,,,0.03,weatherlink.com 1.10,2013-07-29 12:08:00,
2013-07-29 08:38:00,57.3,56.0,30.02,WNW,295,0.0,0.0,95,0.00,,,0.03,weatherlink.com 1.10,2013-07-29 12:38:00,
2013-07-29 09:08:00,58.5,57.0,30.03,WNW,300,0.0,2.0,93,0.00,,,0.03,weatherlink.com 1.10,2013-07-29 13:08:00,
2013-07-29 09:23:00,58.8,56.0,30.03,WNW,298,0.0,0.0,90,0.00,,,0.03,weatherlink.com 1.10,2013-07-29 13:23:00,
2013-07-29 09:53:00,60.3,57.0,30.04,WNW,294,0.0,0.0,89,0.00,,,0.03,weatherlink.com 1.10,2013-07-29 13:53:00,
2013-07-29 10:09:00,59.8,56.0,30.04,WNW,296,0.0,0.0,87,0.00,,,0.03,weatherlink.com 1.10,2013-07-29 14:09:00,
2013-07-29 10:24:00,60.1,56.0,30.05,WNW,291,0.0,0.0,86,0.00,,,0.03,weatherlink.com 1.10,2013-07-29 14:24:00,
2013-07-29 10:39:00,62.2,58.0,30.05,NW,319,0.0,0.0,85,0.00,,,0.03,weatherlink.com 1.10,2013-07-29 14:39:00,
2013-07-29 10:54:00,61.4,56.0,30.05,WNW,303,0.0,4.0,82,0.00,,,0.03,weatherlink.com 1.10,2013-07-29 14:54:00,
2013-07-29 11:09:00,62.1,57.0,30.05,WNW,297,0.0,0.0,83,0.00,,,0.03,weatherlink.com 1.10,2013-07-29 15:09:00,
2013-07-29 11:24:00,62.4,57.0,30.06,SE,124,0.0,1.0,81,0.00,,,0.03,weatherlink.com 1.10,2013-07-29 15:24:00,
2013-07-29 11:39:00,63.2,57.0,30.06,WNW,299,3.0,3.0,79,0.00,,,0.03,weatherlink.com 1.10,2013-07-29 15:39:00,
2013-07-29 11:54:00,62.4,57.0,30.06,WNW,290,0.0,2.0,83,0.00,,,0.03,weatherlink.com 1.10,2013-07-29 15:54:00,
2013-07-29 12:09:00,62.5,57.0,30.07,WNW,301,0.0,2.0,82,0.00,,,0.03,weatherlink.com 1.10,2013-07-29 16:09:00,
2013-07-29 12:39:00,63.2,57.0,30.07,WNW,283,2.0,3.0,81,0.00,,,0.03,weatherlink.com 1.10,2013-07-29 16:39:00,
2013-07-29 13:09:00,63.4,57.0,30.08,WNW,300,0.0,0.0,79,0.00,,,0.03,weatherlink.com 1.10,2013-07-29 17:09:00,
2013-07-29 13:24:00,63.7,57.0,30.08,NW,318,0.0,2.0,79,0.00,,,0.03,weatherlink.com 1.10,2013-07-29 17:24:00,
2013-07-29 13:39:00,64.3,58.0,30.08,West,281,0.0,1.0,79,0.00,,,0.03,weatherlink.com 1.10,2013-07-29 17:39:00,
2013-07-29 14:09:00,64.5,58.0,30.09,WNW,288,0.0,2.0,78,0.00,,,0.03,weatherlink.com 1.10,2013-07-29 18:09:00,
2013-07-29 14:24:00,64.1,57.0,30.09,WNW,288,0.0,4.0,79,0.00,,,0.03,weatherlink.com 1.10,2013-07-29 18:24:00,
2013-07-29 14:39:00,64.3,58.0,30.09,WNW,288,0.0,4.0,79,0.00,,,0.03,weatherlink.com 1.10,2013-07-29 18:39:00,
2013-07-29 14:54:00,65.1,57.0,30.10,WNW,284,0.0,5.0,76,0.00,,,0.03,weatherlink.com 1.10,2013-07-29 18:54:00,
2013-07-29 15:09:00,65.7,57.0,30.09,WNW,303,1.0,4.0,73,0.00,,,0.03,weatherlink.com 1.10,2013-07-29 19:09:00,
2013-07-29 15:24:00,66.0,58.0,30.09,WNW,294,0.0,2.0,74,0.00,,,0.03,weatherlink.com 1.10,2013-07-29 19:24:00,
2013-07-29 15:39:00,66.4,57.0,30.08,WNW,298,2.0,3.0,72,0.00,,,0.03,weatherlink.com 1.10,2013-07-29 19:39:00,
2013-07-29 15:54:00,66.2,57.0,30.08,WNW,291,0.0,2.0,73,0.00,,,0.03,weatherlink.com 1.10,2013-07-29 19:54:00,
2013-07-29 16:09:00,66.4,58.0,30.09,West,274,0.0,3.0,74,0.00,,,0.03,weatherlink.com 1.10,2013-07-29 20:09:00,
2013-07-29 16:24:00,66.4,57.0,30.09,WNW,296,0.0,0.0,72,0.00,,,0.03,weatherlink.com 1.10,2013-07-29 20:24:00,
2013-07-29 16:54:00,66.4,58.0,30.09,WNW,293,0.0,0.0,73,0.00,,,0.03,weatherlink.com 1.10,2013-07-29 20:54:00,
2013-07-29 17:24:00,67.2,58.0,30.10,WNW,302,0.0,0.0,72,0.00,,,0.03,weatherlink.com 1.10,2013-07-29 21:24:00,
2013-07-29 17:39:00,66.9,57.0,30.10,NW,304,0.0,0.0,71,0.00,,,0.03,weatherlink.com 1.10,2013-07-29 21:39:00,
2013-07-29 18:09:00,66.4,58.0,30.10,NW,304,0.0,0.0,73,0.00,,,0.03,weatherlink.com 1.10,2013-07-29 22:09:00,
2013-07-29 18:39:00,66.7,59.0,30.10,NW,319,0.0,0.0,75,0.00,,,0.03,weatherlink.com 1.10,2013-07-29 22:39:00,
2013-07-29 18:54:00,66.5,58.0,30.10,NW,319,0.0,0.0,75,0.00,,,0.03,weatherlink.com 1.10,2013-07-29 22:54:00,
2013-07-29 19:09:00,66.0,58.0,30.10,NW,321,0.0,0.0,75,0.00,,,0.03,weatherlink.com 1.10,2013-07-29 23:09:00,
2013-07-29 19:24:00,65.6,59.0,30.11,NW,320,0.0,0.0,78,0.00,,,0.03,weatherlink.com 1.10,2013-07-29 23:24:00,
2013-07-29 19:39:00,65.2,59.0,30.11,NW,321,0.0,0.0,80,0.00,,,0.03,weatherlink.com 1.10,2013-07-29 23:39:00,
2013-07-29 19:55:00,64.7,58.0,30.11,NW,321,0.0,0.0,80,0.00,,,0.03,weatherlink.com 1.10,2013-07-29 23:55:00,
2013-07-29 20:10:00,64.4,58.0,30.12,NW,321,0.0,0.0,80,0.00,,,0.03,weatherlink.com 1.10,2013-07-30 00:10:00,
2013-07-29 20:25:00,64.0,58.0,30.12,NW,321,0.0,0.0,82,0.00,,,0.03,weatherlink.com 1.10,2013-07-30 00:25:00,
2013-07-29 20:40:00,63.5,59.0,30.12,NW,321,0.0,0.0,84,0.00,,,0.03,weatherlink.com 1.10,2013-07-30 00:40:00,
2013-07-29 20:55:00,62.9,58.0,30.13,NW,321,0.0,0.0,85,0.00,,,0.03,weatherlink.com 1.10,2013-07-30 00:55:00,
2013-07-29 21:25:00,61.3,57.0,30.13,NW,319,0.0,0.0,87,0.00,,,0.03,weatherlink.com 1.10,2013-07-30 01:25:00,
2013-07-29 21:40:00,60.7,57.0,30.14,NW,319,0.0,0.0,88,0.00,,,0.03,weatherlink.com 1.10,2013-07-30 01:40:00,
2013-07-29 22:10:00,59.5,57.0,30.14,NW,319,0.0,0.0,91,0.00,,,0.03,weatherlink.com 1.10,2013-07-30 02:10:00,
2013-07-29 22:25:00,58.9,56.0,30.15,NW,319,0.0,0.0,91,0.00,,,0.03,weatherlink.com 1.10,2013-07-30 02:25:00,
2013-07-29 22:40:00,58.6,56.0,30.16,NW,319,0.0,0.0,92,0.00,,,0.03,weatherlink.com 1.10,2013-07-30 02:40:00,
2013-07-29 22:55:00,58.1,56.0,30.16,NW,319,0.0,0.0,92,0.00,,,0.03,weatherlink.com 1.10,2013-07-30 02:55:00,
2013-07-29 23:10:00,57.8,56.0,30.16,NW,319,0.0,0.0,93,0.00,,,0.03,weatherlink.com 1.10,2013-07-30 03:10:00,
2013-07-29 23:25:00,57.4,55.0,30.16,NW,319,0.0,0.0,93,0.00,,,0.03,weatherlink.com 1.10,2013-07-30 03:25:00,
2013-07-29 23:40:00,57.0,55.0,30.16,NW,319,0.0,0.0,94,0.00,,,0.03,weatherlink.com 1.10,2013-07-30 03:40:00,
2013-07-29 23:55:00,56.6,55.0,30.15,NW,319,0.0,0.0,94,0.00,,,0.03,weatherlink.com 1.10,2013-07-30 03:55:00,